Location: Mahannah Oil Field
(37.4664°N, 96.6003°W)
Time: 00:19:17
(UTC+00:00)

Vanguard 3 - Pass Details

Date: 27 January 2021
Orbit: 508 x 3262 km, 33.4° (Epoch: 03 March)

Event Time Altitude Azimuth Distance (km) Brightness Sun altitude
Exits shadow 09:03:44 16° 93° (E) 2,842 10.2 -53.1°
Drops below altitude 10° 09:05:33 10° 89° (E) 3,488 10.8 -52.8°
Sets 09:09:41 0° 84° (E) 4,953 11.7 -52.0°
